Avalon, Australia

8:17 AM AEDT on March 29, 2017 (GMT +1100)
Avalon

Weather History for YMAV - July, 2013

Change the Weather History Date:

Monday, July 8, 2013

  Actual Average Record
Temperature  
Mean Temperature 46 °F -  
Max Temperature 56 °F - - ()
Min Temperature 35 °F - - ()
Degree Days  
Heating Degree Days 20    
Moisture  
Dew Point 39 °F    
Average Humidity 84    
Maximum Humidity 100    
Minimum Humidity 52    
Precipitation  
Precipitation 0.00 in - - ()
Sea Level Pressure  
Sea Level Pressure 30.47 in    
Wind  
Wind Speed 7 mph ()    
Max Wind Speed 15 mph    
Max Gust Speed -    
Visibility 6.2 miles    
Events      
T = Trace of Precipitation, MM = Missing Value Source: Averaged Metar Reports

Daily Weather History Graph

Daily Weather History Graph

Search for Another Location

Airport or City:

Trip Planner

Search our weather history database for the weather conditions in past years. The results will help you decide how hot, cold, wet, or windy it might be!

Date:

Astronomy

Jul. 08, 2013 Rise Set
Actual Time 7:37 AM AEST 5:16 PM AEST
Civil Twilight 7:08 AM AEST 5:45 PM AEST
Nautical Twilight 6:35 AM AEST 6:18 PM AEST
Astronomical Twilight 6:04 AM AEST 6:50 PM AEST
Moon 7:07 AM AEST (7/8) 5:25 PM AEST (7/8)
Length of Visible Light 10h 37m
Length of Day
9h 38m
Waning Crescent, 0% of the Moon is Illuminated
Jul 8
Waning Crescent
Jul 8
New
Jul 16
First Quarter
Jul 23
Full
Jul 30
Last Quarter

Hourly Weather History & Observations

Time (AEST) Temp. Windchill Dew Point Humidity Pressure Visibility Wind Dir Wind Speed Gust Speed Precip Events Conditions
12:00 AM 40 °F - 38 °F 92% 30.37 in - NNE 4.6 mph - -  
12:00 AM 39.2 °F 35.9 °F 39.2 °F 100% 30.36 in 6.2 mi NNE 4.6 mph - N/A   Unknown
12:30 AM 41.0 °F 37.1 °F 39.2 °F 93% 30.36 in 6.2 mi North 5.8 mph - N/A   Unknown
1:00 AM 39.2 °F 33.0 °F 37.4 °F 93% 30.36 in 6.2 mi NNW 9.2 mph - N/A   Unknown
1:30 AM 37.4 °F 31.4 °F 37.4 °F 100% 30.36 in 6.2 mi NW 8.1 mph - N/A   Unknown
2:00 AM 39.2 °F 33.6 °F 37.4 °F 93% 30.36 in 6.2 mi West 8.1 mph - N/A   Unknown
2:30 AM 37.4 °F 31.4 °F 37.4 °F 100% 30.39 in 6.2 mi NW 8.1 mph - N/A   Unknown
3:00 AM 39 °F - 38 °F 94% 30.39 in - NNW 9.2 mph - -  
3:00 AM 39.2 °F 33.0 °F 37.4 °F 93% 30.39 in 6.2 mi NNW 9.2 mph - N/A   Unknown
3:30 AM 39.2 °F 33.6 °F 37.4 °F 93% 30.39 in 6.2 mi NW 8.1 mph - N/A   Unknown
4:00 AM 41.0 °F 34.7 °F 37.4 °F 87% 30.39 in 6.2 mi NNW 10.4 mph - N/A   Unknown
4:30 AM 39.2 °F 33.0 °F 37.4 °F 93% 30.39 in 6.2 mi NW 9.2 mph - N/A   Unknown
5:00 AM 37.4 °F 31.4 °F 35.6 °F 93% 30.39 in 6.2 mi WNW 8.1 mph - N/A   Unknown
5:30 AM 37.4 °F 32.8 °F 35.6 °F 93% 30.42 in 6.2 mi WNW 5.8 mph - N/A   Unknown
6:00 AM 37 °F - 36 °F 95% 30.43 in - WNW 10.4 mph - -  
6:00 AM 37.4 °F 30.3 °F 35.6 °F 93% 30.42 in 6.2 mi WNW 10.4 mph - N/A   Unknown
6:30 AM 37.4 °F 30.8 °F 35.6 °F 93% 30.42 in 6.2 mi WNW 9.2 mph - N/A   Scattered Clouds
7:00 AM 35.6 °F 30.7 °F 33.8 °F 93% 30.45 in 6.2 mi West 5.8 mph - N/A   Unknown
7:30 AM 35.6 °F 31.7 °F 33.8 °F 93% 30.45 in 6.2 mi North 4.6 mph - N/A   Unknown
8:00 AM 37.4 °F - 35.6 °F 93% 30.45 in 6.2 mi Calm Calm - N/A   Unknown
8:30 AM 37.4 °F - 35.6 °F 93% 30.48 in 6.2 mi SW 1.2 mph - N/A   Unknown
9:00 AM 40 °F - 39 °F 94% 30.49 in - West 3.5 mph - -  
9:00 AM 39.2 °F 37.0 °F 39.2 °F 100% 30.48 in 6.2 mi West 3.5 mph - N/A   Unknown
9:30 AM 42.8 °F - 41.0 °F 93% 30.48 in 6.2 mi Calm Calm - N/A   Unknown
10:00 AM 46.4 °F 43.5 °F 42.8 °F 87% 30.51 in 6.2 mi WNW 5.8 mph - N/A   Unknown
10:30 AM 48.2 °F - 42.8 °F 82% 30.51 in 6.2 mi SW 5.8 mph - N/A   Unknown
11:00 AM 51.8 °F - 44.6 °F 76% 30.51 in 6.2 mi West 12.7 mph - N/A   Unknown
11:30 AM 51.8 °F - 42.8 °F 71% 30.51 in 6.2 mi West 12.7 mph - N/A   Unknown
12:00 PM 54 °F - 45 °F 62% 30.51 in - West 11.5 mph - -  
12:00 PM 53.6 °F - 44.6 °F 72% 30.51 in 6.2 mi West 11.5 mph - N/A   Unknown
12:30 PM 55.4 °F - 44.6 °F 67% 30.48 in 6.2 mi West 13.8 mph - N/A   Unknown
1:00 PM 55.4 °F - 44.6 °F 67% 30.48 in 6.2 mi West 15.0 mph - N/A   Unknown
1:30 PM 55.4 °F - 42.8 °F 63% 30.48 in 6.2 mi West 15.0 mph - N/A   Unknown
2:00 PM 55.4 °F - 42.8 °F 63% 30.48 in 6.2 mi West 13.8 mph - N/A   Unknown
2:30 PM 55.4 °F - 42.8 °F 63% 30.48 in 6.2 mi West 10.4 mph - N/A   Unknown
3:00 PM 56 °F - 43 °F 52% 30.49 in - West 10.4 mph - -  
3:00 PM 55.4 °F - 42.8 °F 63% 30.48 in 6.2 mi West 10.4 mph - N/A   Unknown
3:30 PM 55.4 °F - 42.8 °F 63% 30.48 in 6.2 mi West 11.5 mph - N/A   Unknown
4:00 PM 55.4 °F - 42.8 °F 63% 30.48 in 6.2 mi West 10.4 mph - N/A   Unknown
4:30 PM 53.6 °F - 41.0 °F 62% 30.48 in 6.2 mi West 8.1 mph - N/A   Scattered Clouds
5:00 PM 51.8 °F - 41.0 °F 67% 30.51 in 6.2 mi West 6.9 mph - N/A   Mostly Cloudy
5:30 PM 50.0 °F - 41.0 °F 71% 30.51 in 6.2 mi West 6.9 mph - N/A   Unknown
6:00 PM 47 °F - 40 °F 69% 30.52 in - West 3.5 mph - -  
6:00 PM 46.4 °F 45.2 °F 39.2 °F 76% 30.51 in 6.2 mi West 3.5 mph - N/A   Unknown
6:30 PM 46.4 °F 45.2 °F 41.0 °F 81% 30.51 in 6.2 mi West 3.5 mph - N/A   Scattered Clouds
7:00 PM 46.4 °F 43.5 °F 41.0 °F 81% 30.54 in 6.2 mi WSW 5.8 mph - N/A   Mostly Cloudy
7:30 PM 44.6 °F 41.4 °F 41.0 °F 87% 30.54 in 6.2 mi West 5.8 mph - N/A   Unknown
8:00 PM 42.8 °F 40.1 °F 39.2 °F 87% 30.54 in 6.2 mi West 4.6 mph - N/A   Unknown
8:30 PM 42.8 °F 39.3 °F 39.2 °F 87% 30.54 in 6.2 mi NW 5.8 mph - N/A   Unknown
9:00 PM 41 °F - 38 °F 87% 30.56 in - NNW 6.9 mph - -  
9:00 PM 41.0 °F 36.4 °F 39.2 °F 93% 30.54 in 6.2 mi NNW 6.9 mph - N/A   Unknown
9:30 PM 41.0 °F 37.1 °F 39.2 °F 93% 30.54 in 6.2 mi NW 5.8 mph - N/A   Unknown
10:00 PM 39.2 °F 35.0 °F 37.4 °F 93% 30.54 in 6.2 mi NW 5.8 mph - N/A   Unknown
10:30 PM 39.2 °F 35.9 °F 37.4 °F 93% 30.57 in 6.2 mi WNW 4.6 mph - N/A   Unknown
11:00 PM 37.4 °F 32.1 °F 35.6 °F 93% 30.57 in 6.2 mi NW 6.9 mph - N/A   Unknown
11:30 PM 39.2 °F 35.9 °F 37.4 °F 93% 30.57 in 6.2 mi NW 4.6 mph - N/A   Unknown